[[{"header":{"parameterUnit":"m.s-1","parameterCategory":1,"la1":30.2991,"la2":30.254,"lo1":-89.0895,"lo2":-89.0444,"dy":0.0017,"dx":0.0017,"nx":28,"ny":28,"refTime":"2025-05-23T21:00:00:Z","depth":0,"parameterNumber":2,"parameterNumberName":"U-component_of_WINDS"},"data":[0,0,0,0,0,0,0,0,0,0,0,0,0,0,0,0,0,0,0,0,0,0,0,0,0,0,0,0,0,0,0,0,0,0,0,0,0,0,0,0,0,0,0,0,0,0,0,0,0,0,0,0,0,0,0,0,0,0,0.3039,0.304,0,0.3159,0.3161,0.3162,0.321,0.3209,0.3209,0.3209,0.3335,0.3338,0.3342,0,0,0,0,0,0,0,0,0,0,0,0,0,0.2852,0.2855,0.3039,0.304,0.3042,0.3159,0.3161,0.3163,0.321,0.3209,0.3209,0.3209,0.3333,0.3338,0.3342,0,0,0,0,0,0,0,0,0,0,0,0,0,0.2949,0.2856,0.3039,0.308,0.3084,0.3159,0.3161,0.3163,0.321,0.3209,0.3209,0.3208,0.3332,0.3337,0.3343,0.3386,0,0,0.3359,0.3362,0,0,0,0,0,0,0,0,0.2943,0.2956,0.3072,0.3077,0.3082,0.3169,0.3141,0.3238,0.321,0.3162,0.3209,0.3208,0.328,0.329,0.3313,0.3392,0.3397,0.336,0.3363,0.3365,0.3367,0,0,0,0,0,0,0,0.2937,0.2951,0.3087,0.3074,0.308,0.3093,0.3106,0.316,0.3222,0.3166,0.317,0.3184,0.3283,0.3308,0.3317,0.3399,0.336,0.3364,0.3368,0.337,0.3521,0.3521,0,0,0,0,0,0,0.2923,0.2945,0.3083,0.309,0.301,0.3096,0.3111,0.3142,0.3222,0.3234,0.3184,0.3185,0.3299,0.331,0.3321,0.3378,0.3365,0.3371,0.3374,0.352,0.3521,0.3521,0,0,0,0,0,0,0.2919,0.2935,0.3078,0.3019,0.3038,0.31,0.3134,0.3144,0.317,0.3235,0.3247,0.3198,0.3299,0.3314,0.337,0.3383,0.3373,0.3378,0.3519,0.352,0.3521,0.3491,0,0,0,0,0,0,0.2913,0.2933,0.2949,0.3019,0.3041,0.3123,0.3135,0.3147,0.3179,0.3182,0.3252,0.3263,0.33,0.3361,0.3375,0.339,0.3382,0.3518,0.3519,0.3521,0.3491,0.3491,0.3491,0,0,0,0,0,0.2906,0.2936,0.295,0.2966,0.3062,0.3124,0.3137,0.3178,0.318,0.3197,0.3239,0.326,0.3379,0.3367,0.3383,0.34,0.3517,0.3519,0.3521,0.3491,0.3491,0.3491,0,0,0,0,0,0,0.2867,0.2946,0.2962,0.3015,0.3062,0.3132,0.3155,0.3176,0.3225,0.3226,0.3276,0.3291,0.3343,0.3377,0.3362,0.3447,0.345,0.3455,0.3422,0.3423,0.3422,0.3413,0.3387,0,0,0,0,0,0.2864,0.2907,0.2974,0.3015,0.3037,0.3092,0.312,0.3148,0.3199,0.322,0.3266,0.3316,0.3365,0.3396,0.3444,0.3497,0.3513,0.3516,0.3516,0.3516,0.3519,0.3551,0.3553,0.3527,0.3527,0.3527,0,0,0.286,0.2908,0.2932,0.3008,0.3048,0.3092,0.3108,0.3154,0.3187,0.3227,0.3282,0.3318,0.3377,0.3432,0.3458,0.3462,0.353,0.3518,0.3517,0.3521,0.3553,0.3555,0.3557,0.3528,0.3528,0.3528,0,0,0.2874,0.2914,0.2953,0.2992,0.3053,0.3089,0.3098,0.3165,0.319,0.3246,0.3277,0.3318,0.3401,0.3442,0.3473,0.3504,0.3525,0.3518,0.3517,0.3547,0.3549,0.3551,0.3563,0.3566,0.3522,0.3522,0.3522,0,0.286,0.2927,0.297,0.3014,0.3047,0.3085,0.3125,0.3161,0.3234,0.3256,0.3259,0.3364,0.3407,0.3472,0.3479,0.3503,0.3516,0.351,0.3545,0.3548,0.3551,0.3562,0.3566,0.352,0.352,0.3521,0.3521,0,0.2908,0.2953,0.2977,0.3046,0.3082,0.3124,0.3174,0.3205,0.3231,0.3267,0.3325,0.3377,0.3437,0.3454,0.3479,0.3524,0.3524,0.3535,0.354,0.3551,0.3563,0.3567,0.3519,0.3519,0.3519,0.352,0,0,0.2899,0.2992,0.3001,0.3033,0.3102,0.3139,0.3183,0.3241,0.3267,0.3317,0.3355,0.3425,0.3436,0.3472,0.3502,0.3528,0.355,0.3537,0.3539,0.3538,0.3603,0.3593,0.3598,0.3565,0.3566,0.3567,0.3598,0,0.2923,0.3002,0.3043,0.3105,0.3148,0.3185,0.3224,0.3271,0.3307,0.3349,0.3389,0.3437,0.3449,0.3471,0.3498,0.3541,0.3564,0.354,0.3602,0.3604,0.3586,0.3604,0.3594,0.3621,0.3603,0.3603,0.3604,0,0.296,0.3009,0.3075,0.314,0.316,0.3193,0.3251,0.3291,0.3346,0.337,0.341,0.344,0.3489,0.349,0.3559,0.3542,0.357,0.3595,0.3597,0.3605,0.3604,0.3612,0.363,0.3634,0.3612,0.3611,0.361,0,0.2947,0.303,0.308,0.3107,0.3184,0.3207,0.324,0.3295,0.3328,0.3378,0.34,0.3455,0.3486,0.3529,0.3573,0.357,0.3638,0.3643,0.366,0.3659,0.3673,0.3671,0.3696,0.3691,0.3691,0.369,0.369,0,0.2969,0.3008,0.3076,0.3107,0.3152,0.3199,0.3243,0.328,0.3328,0.3368,0.3404,0.3441,0.3497,0.3541,0.3577,0.3629,0.3642,0.3664,0.3673,0.3661,0.3658,0.368,0.3679,0.3692,0.3691,0.3691,0.3691,0,0.2962,0.3009,0.3067,0.3135,0.3154,0.3184,0.3244,0.3276,0.3313,0.3363,0.3378,0.3437,0.3491,0.3539,0.3611,0.3635,0.3688,0.3699,0.3669,0.3674,0.3689,0.3687,0.3729,0.3737,0.3725,0.3725,0.3725,0,0.2973,0.3004,0.3076,0.3105,0.3137,0.3183,0.3217,0.3265,0.3299,0.3364,0.3389,0.3445,0.3493,0.3578,0.3628,0.3683,0.3696,0.3707,0.3705,0.3692,0.3697,0.3694,0.3698,0.3706,0.3706,0.3706,0.3706,0,0.2987,0.3008,0.3055,0.311,0.3149,0.3194,0.3241,0.3263,0.332,0.3357,0.3412,0.3449,0.3522,0.3578,0.3639,0.3675,0.3701,0.3706,0.3714,0.3701,0.3683,0.3693,0.3668,0.3705,0.3705,0.3705,0.3705,0.3705,0.2989,0.3019,0.3074,0.3125,0.3166,0.3209,0.3243,0.3284,0.3331,0.3394,0.342,0.3476,0.3532,0.3617,0.3653,0.3698,0.3703,0.3713,0.3716,0.3718,0.3715,0.3675,0.371,0.371,0.371,0.371,0.371,0,0.3005,0.3043,0.3089,0.3154,0.3194,0.3214,0.3267,0.33,0.3349,0.3398,0.3444,0.3508,0.3563,0.3618,0.3676,0.3702,0.3715,0.3715,0.3714,0.3722,0.3707,0.3696,0.3704,0.3704,0.3704,0.3704,0.3704,0.3704,0.3018,0.3069,0.3098,0.317,0.3208,0.3263,0.3291,0.3332,0.3372,0.3441,0.3487,0.3522,0.3574,0.3636,0.3688,0.3703,0.3723,0.372,0.3738,0.3723,0.3723,0.3723,0.3712,0.3724,0.3724,0.3749,0.3749,0.3749]},{"header":{"parameterUnit":"m.s-1","parameterCategory":1,"la1":30.2991,"la2":30.254,"lo1":-89.0895,"lo2":-89.0444,"dy":0.0017,"dx":0.0017,"nx":28,"ny":28,"refTime":"2025-05-23T21:00:00:Z","depth":0,"parameterNumber":3,"parameterNumberName":"V-component_of_WINDS"},"data":[0,0,0,0,0,0,0,0,0,0,0,0,0,0,0,0,0,0,0,0,0,0,0,0,0,0,0,0,0,0,0,0,0,0,0,0,0,0,0,0,0,0,0,0,0,0,0,0,0,0,0,0,0,0,0,0,0,0,3.0448,3.0448,0,3.048,3.048,3.048,3.0436,3.0434,3.0433,3.0431,3.046,3.0462,3.0464,0,0,0,0,0,0,0,0,0,0,0,0,0,3.0346,3.0348,3.0448,3.0448,3.0449,3.0479,3.048,3.048,3.0436,3.0434,3.0432,3.043,3.0459,3.0462,3.0464,0,0,0,0,0,0,0,0,0,0,0,0,0,3.0385,3.0349,3.0448,3.043,3.0429,3.0479,3.048,3.048,3.0436,3.0434,3.0432,3.0429,3.0458,3.0461,3.0465,3.0533,0,0,3.0475,3.0476,0,0,0,0,0,0,0,0,3.0383,3.0389,3.0432,3.0432,3.043,3.0451,3.0455,3.0498,3.0437,3.0433,3.0431,3.0428,3.0459,3.0462,3.0473,3.0534,3.0535,3.0475,3.0477,3.0479,3.048,0,0,0,0,0,0,0,3.0381,3.0388,3.046,3.0433,3.0432,3.042,3.0423,3.0463,3.0459,3.0434,3.043,3.0435,3.0458,3.047,3.0473,3.0536,3.0475,3.0478,3.048,3.0482,3.0656,3.0658,0,0,0,0,0,0,3.038,3.0386,3.0459,3.0461,3.0401,3.0424,3.0427,3.0447,3.0458,3.0458,3.0437,3.0433,3.0465,3.0469,3.0474,3.0556,3.0479,3.0482,3.0484,3.0653,3.0657,3.0659,0,0,0,0,0,0,3.0378,3.0387,3.0458,3.0423,3.0431,3.0428,3.0451,3.0449,3.0461,3.0461,3.046,3.045,3.0463,3.0469,3.0519,3.0556,3.0483,3.0486,3.065,3.0654,3.0658,3.0719,0,0,0,0,0,0,3.0376,3.0387,3.0413,3.0424,3.0433,3.0503,3.0453,3.0451,3.0467,3.0462,3.0473,3.0473,3.0462,3.0514,3.0522,3.0559,3.0489,3.0647,3.0652,3.0657,3.0713,3.0724,3.0734,0,0,0,0,0,3.0372,3.0428,3.0415,3.0424,3.0466,3.0505,3.0511,3.0499,3.047,3.0496,3.0497,3.0472,3.0551,3.052,3.0529,3.0567,3.0645,3.0651,3.0656,3.0709,3.0722,3.0733,0,0,0,0,0,0,3.0419,3.0429,3.0414,3.0475,3.049,3.0498,3.053,3.0513,3.0535,3.0529,3.0512,3.0515,3.0569,3.0572,3.0538,3.0634,3.0593,3.0601,3.063,3.0642,3.0652,3.065,3.0492,0,0,0,0,0,3.0437,3.047,3.0476,3.0529,3.0537,3.0533,3.055,3.0539,3.0554,3.0559,3.0563,3.0577,3.0605,3.0624,3.0649,3.0714,3.0716,3.0744,3.0755,3.0763,3.077,3.0806,3.0819,3.0679,3.0679,3.0679,0,0,3.0474,3.0483,3.0504,3.0538,3.0549,3.0583,3.0538,3.0575,3.06,3.0564,3.0613,3.0616,3.0631,3.0689,3.0714,3.0694,3.0809,3.077,3.0777,3.078,3.0813,3.0827,3.0839,3.0683,3.0682,3.0681,0,0,3.0558,3.0568,3.0614,3.0626,3.0643,3.064,3.0652,3.0663,3.0665,3.0713,3.0688,3.0716,3.0764,3.0777,3.0789,3.088,3.0859,3.0889,3.0942,3.0977,3.0988,3.0998,3.1032,3.1044,3.0896,3.0896,3.0896,0,3.06,3.0652,3.0639,3.068,3.0696,3.0667,3.0714,3.0726,3.075,3.0761,3.0738,3.08,3.0807,3.0869,3.0891,3.0902,3.0914,3.0888,3.0988,3.0997,3.1006,3.1038,3.1051,3.09,3.0899,3.0899,3.0899,0,3.0704,3.074,3.0775,3.0802,3.0822,3.0865,3.0859,3.0881,3.0869,3.0869,3.0919,3.0927,3.0955,3.0969,3.0957,3.1029,3.1016,3.099,3.0949,3.1023,3.1053,3.1066,3.0905,3.0904,3.0903,3.0902,0,0,3.0817,3.0839,3.0852,3.0865,3.0883,3.091,3.0952,3.0981,3.1001,3.1018,3.1054,3.1096,3.1074,3.1088,3.1077,3.1108,3.1182,3.1079,3.1079,3.1099,3.1264,3.1284,3.1298,3.1168,3.117,3.1172,3.1263,0,3.0903,3.0977,3.0969,3.1039,3.1073,3.1047,3.1084,3.1099,3.11,3.1128,3.1129,3.116,3.1127,3.1136,3.1165,3.1167,3.1215,3.116,3.1201,3.1202,3.1199,3.1313,3.1334,3.142,3.1275,3.1276,3.1278,0,3.1011,3.1036,3.1111,3.1127,3.114,3.1174,3.1201,3.1228,3.1245,3.1243,3.1261,3.1245,3.1287,3.1245,3.1303,3.1266,3.1282,3.1286,3.1288,3.1292,3.1245,3.1321,3.1446,3.146,3.1296,3.1294,3.1293,0,3.1089,3.114,3.1193,3.1204,3.1222,3.1247,3.1255,3.127,3.1289,3.1312,3.1324,3.1351,3.1366,3.1387,3.138,3.1349,3.144,3.1396,3.144,3.1441,3.1461,3.146,3.1591,3.147,3.1469,3.1469,3.1469,0,3.1185,3.1232,3.1228,3.126,3.1312,3.1302,3.1354,3.1359,3.1373,3.1405,3.1384,3.1414,3.1402,3.1432,3.1426,3.1476,3.1482,3.1483,3.1481,3.1485,3.1486,3.1496,3.149,3.1473,3.1472,3.1471,3.1471,0,3.128,3.1279,3.1334,3.1348,3.1353,3.1391,3.1403,3.1433,3.1433,3.1475,3.1484,3.1484,3.1518,3.1513,3.155,3.1546,3.1609,3.1599,3.1605,3.1603,3.1647,3.1644,3.1791,3.181,3.1675,3.1677,3.1678,0,3.1342,3.1378,3.1397,3.1418,3.1429,3.1463,3.1483,3.1474,3.1496,3.1519,3.1547,3.158,3.1606,3.1662,3.1665,3.1694,3.1685,3.1735,3.1689,3.1693,3.1687,3.1686,3.169,3.1744,3.1745,3.1746,3.1747,0,3.1452,3.1451,3.1481,3.1512,3.1537,3.156,3.1581,3.1599,3.1593,3.1618,3.1654,3.1674,3.1714,3.1748,3.1775,3.1783,3.1765,3.1762,3.1774,3.1779,3.1782,3.1783,3.163,3.1759,3.1757,3.1757,3.1756,3.1756,3.1533,3.1565,3.1585,3.1619,3.1635,3.1656,3.1686,3.1691,3.1722,3.1755,3.1747,3.1789,3.1806,3.1841,3.1853,3.1884,3.1866,3.1883,3.1887,3.1892,3.1898,3.1776,3.1889,3.1889,3.1888,3.1888,3.1888,0,3.1644,3.1656,3.1688,3.172,3.1748,3.173,3.1753,3.1777,3.1814,3.1832,3.1859,3.1902,3.1935,3.1941,3.1972,3.1997,3.1989,3.2005,3.2004,3.2006,3.1912,3.1899,3.2011,3.2011,3.2011,3.2011,3.2011,3.2011,3.1705,3.1759,3.176,3.1822,3.1832,3.1874,3.1889,3.1909,3.1924,3.1973,3.2001,3.2005,3.2019,3.2052,3.2081,3.2082,3.2095,3.2115,3.2113,3.2025,3.2013,3.2001,3.1989,3.2118,3.2118,3.2205,3.2205,3.2206]}]]